Content
SEND FEEDBACK

Daily
Averages
Monthly
Summary
United States of America

BLACK HAWK, SOUTH DAKOTA


Home > North America > United States > South Dakota
Elevation: 3352 feet     Latitude: 44 05N     Longitude: 103 16W

WEATHER
 
SELECT A DAY
Number of Records: 207,703;   Date Range: 1/1/95 - 10/19/14
 
SHARE

PRINT THIS DATA

[ ← Previous Day ]
WEATHER ALMANAC - JUNE 19, 2013
[ Next Day → ]
[ °C ]   °F
Weather ElementAverageHighLow
Temperature75.3 °F86.9 °F (2:58 pm)61.2 °F (4:58 am)
Dewpoint58.6 °F64.4 °F (11:21 pm)49.3 °F (5:58 am)
Humidity57 %73 % (11:28 pm)39 % (1:58 pm)
Barometer29.68 in29.81 in (1:58 am)29.55 in (11:58 pm)
Wind Speed16.7 mph24.2 mph (2:58 pm)
Wind Gust35.7 mph (11:58 pm)
Weather ElementAverage
Visibility10 mi
Wind DirectionSSE (170.3 °)

Weather ElementTotal
Precipitation---
Cooling Degree Days9.1 (Base 65)
Growing Degree Days24.1 (Base 50)
Averaged from 30 records on June 19, 2013
WEATHER CONDITIONS BREAKOUT
WIND DIRECTION BREAKOUT
WEATHER BY HOUR - JUNE 19, 2013
[ °C ]   °F
Local TimeTemperatureDewpointHumidityBarometerVisibilityWind DirectionWind SpeedGust SpeedPrecipitationEventsConditions
1:58 AM62.2 °F52.5 °F70 %29.81 in10.0 miSouth (180°)8.1 mphClear
2:58 AM62.8 °F50.9 °F65 %29.81 in10.0 miSouth (180°)9.2 mphClear
3:58 AM63.3 °F49.5 °F61 %29.78 in10.0 miSouth (180°)8.1 mphClear
4:58 AM61.2 °F49.8 °F66 %29.81 in10.0 miSouth (170°)8.1 mphPartly Cloudy
5:58 AM62.6 °F49.3 °F62 %29.80 in10.0 miSE (140°)6.9 mphClear
6:58 AM65.7 °F52.7 °F63 %29.78 in10.0 miSSE (150°)11.5 mphClear
7:58 AM69.6 °F54.0 °F57 %29.75 in10.0 miSouth (170°)13.8 mphClear
8:58 AM72.3 °F55.6 °F56 %29.77 in10.0 miSouth (170°)18.4 mph28.8 mphClear
9:58 AM74.3 °F55.4 °F52 %29.75 in10.0 miSSE (160°)20.7 mph25.3 mphClear
10:58 AM76.5 °F57.2 °F51 %29.73 in10.0 miSSE (150°)17.3 mph25.3 mphClear
11:58 AM79.5 °F57.4 °F47 %29.71 in10.0 miSouth (170°)19.6 mph28.8 mphClear
12:58 PM82.6 °F57.7 °F43 %29.68 in10.0 miSE (140°)21.9 mph32.2 mphPartly Cloudy
1:58 PM85.1 °F57.7 °F39 %29.66 in10.0 miSSE (150°)23.0 mph29.9 mphPartly Cloudy
2:58 PM86.9 °F58.8 °F39 %29.65 in10.0 miSouth (180°)24.2 mph32.2 mphPartly Cloudy
3:58 PM84.4 °F59.9 °F43 %29.63 in10.0 miSouth (180°)20.7 mph32.2 mphScattered Clouds
4:58 PM85.6 °F60.4 °F42 %29.61 in10.0 miSouth (180°)18.4 mph28.8 mphClear
5:58 PM85.3 °F61.3 °F44 %29.60 in10.0 miSouth (170°)20.7 mph28.8 mphClear
6:58 PM81.5 °F62.4 °F52 %29.60 in10.0 miSSE (160°)12.7 mphPartly Cloudy
7:18 PM80.6 °F62.6 °F54 %29.67 in10.0 miSSE (160°)12.7 mphRainLight Rain
7:21 PM80.6 °F62.6 °F54 %29.66 in10.0 miSSE (160°)13.8 mphClear
7:58 PM80.2 °F63.0 °F55 %29.60 in10.0 miSSE (160°)13.8 mph0.00 inClear
8:58 PM78.1 °F63.0 °F60 %29.60 in10.0 miSSE (160°)16.1 mph23.0 mphClear
9:58 PM76.3 °F62.6 °F62 %29.60 in10.0 miSouth (170°)16.1 mphClear
10:58 PM76.5 °F62.2 °F61 %29.59 in10.0 miSouth (170°)19.6 mph25.3 mphScattered Clouds
11:21 PM75.2 °F64.4 °F69 %29.66 in10.0 miSSE (160°)23.0 mph31.1 mphRainLight Rain
11:28 PM73.4 °F64.4 °F73 %29.65 in10.0 miSouth (180°)24.2 mph31.1 mphRain-ThunderstormLight Thunderstorms and Rain
11:33 PM73.4 °F62.6 °F69 %29.65 in10.0 miSSW (200°)20.7 mph29.9 mphThunderstormThunderstorm
11:35 PM73.4 °F62.6 °F69 %29.66 in10.0 miSSW (210°)21.9 mph29.9 mphThunderstormThunderstorm
11:43 PM73.4 °F64.4 °F73 %29.67 in10.0 miSSW (200°)21.9 mph29.9 mphMostly Cloudy
11:58 PM76.3 °F61.0 °F59 %29.55 in10.0 miSSW (200°)15.0 mph35.7 mph0.00 inOvercast
Hourly data recorded from KRCA, located miles away from Black Hawk, South Dakota







STORIES FROM OUR PARTNERS